Weather reports worldwide

Advertisment
Westdorpe aws, Netherlands (6319): temperature & dewpoint: 26.09.2020 00:00:00 - 02.10.2020 00:00:00 (CEST)Westdorpe aws, Netherlands (6319): temperature 5cm: 26.09.2020 00:00:00 - 02.10.2020 00:00:00 (CEST)Westdorpe aws, Netherlands (6319): wind speed & gusts: 26.09.2020 00:00:00 - 02.10.2020 00:00:00 (CEST)Westdorpe aws, Netherlands (6319): wind direction: 26.09.2020 00:00:00 - 02.10.2020 00:00:00 (CEST)Westdorpe aws, Netherlands (6319): reduced air pressure: 26.09.2020 00:00:00 - 02.10.2020 00:00:00 (CEST)Westdorpe aws, Netherlands (6319): visibility: 26.09.2020 00:00:00 - 02.10.2020 00:00:00 (CEST)Westdorpe aws, Netherlands (6319): precipitation: 26.09.2020 00:00:00 - 02.10.2020 00:00:00 (CEST)
Date & Time tt [°C] td [°C] tt 5cm [°C] ff [km/h] ff [kn] fx [km/h] fx [kn] dd ppp [hPa] vv [km] rr [mm]
02.10.2020 00:00:00 9,7 7,9 8,0 7 4 14 8 SSE 998,3 69 0,0
01.10.2020 23:00:00 10,5 7,7 8,8 7 4 14 8 SSE 999,1 65 0,0
01.10.2020 22:00:00 11,3 8,1 10,2 11 6 22 12 S 999,5 75 0,0
01.10.2020 21:00:00 12,1 7,7 10,4 14 8 25 14 SW 999,3 75 0,0
01.10.2020 20:00:00 11,3 8,6 9,8 11 6 18 10 SSW 999,4 67 0,0
01.10.2020 19:00:00 12,7 9,3 12,0 11 6 32 18 SW 999,3 71 0,0
01.10.2020 18:00:00 14,8 10,9 15,1 18 10 36 19 W 998,9 73 0,0
01.10.2020 17:00:00 14,6 11,9 14,2 25 14 36 19 W 998,6 74 0,7
01.10.2020 16:00:00 14,7 12,3 14,9 18 10 29 16 WSW 998,2 69 0,0
01.10.2020 15:00:00 14,0 13,0 13,9 18 10 29 16 SW 997,5 65 0,4
01.10.2020 14:00:00 13,3 12,4 13,4 22 12 47 25 SW 997,1 52 1,6
01.10.2020 13:00:00 14,7 13,4 14,7 14 8 25 14 SSE 996,9 30 0,2
01.10.2020 12:00:00 14,6 13,4 14,5 14 8 25 14 SSE 997,5 40 0,1
01.10.2020 11:00:00 14,3 13,4 14,1 11 6 22 12 SSE 998,2 37 0,3
01.10.2020 10:00:00 14,1 13,5 14,0 11 6 25 14 SSE 998,8 10 4,3
01.10.2020 09:00:00 14,3 13,5 14,1 14 8 25 14 SSE 999,4 11 1,1
01.10.2020 08:00:00 14,3 13,6 14,0 11 6 22 12 SSE 1000,0 28 0,7
01.10.2020 07:00:00 14,6 13,5 14,2 11 6 22 12 SSE 1001,0 19 0,5
01.10.2020 06:00:00 14,8 13,6 14,4 11 6 22 12 SSE 1001,7 34 0,6
01.10.2020 05:00:00 15,6 13,3 15,0 11 6 22 12 SSE 1002,6 47 0,0
01.10.2020 04:00:00 15,6 13,5 15,0 11 6 22 12 SSE 1003,5 49 0,0
01.10.2020 03:00:00 15,6 13,7 15,0 11 6 18 10 SSE 1004,2 44 0,0
01.10.2020 02:00:00 15,9 13,8 15,2 11 6 22 12 SSE 1005,1 49 0,0
01.10.2020 01:00:00 16,0 14,0 15,3 11 6 22 12 SSE 1005,8 31 0,0
01.10.2020 00:00:00 16,1 14,1 15,5 11 6 22 12 S 1006,7 32 0,0
30.09.2020 23:00:00 16,3 14,0 15,6 14 8 25 14 S 1007,4 34 0,0
30.09.2020 22:00:00 16,3 14,2 15,4 11 6 18 10 SSE 1008,1 41 0,0
30.09.2020 21:00:00 16,6 13,7 15,7 7 4 22 12 S 1008,5 59 0,0
30.09.2020 20:00:00 16,9 13,9 16,1 11 6 14 8 SSE 1009,0 66 0,0
30.09.2020 19:00:00 17,3 14,0 16,6 11 6 22 12 S 1009,4 65 0,0
30.09.2020 18:00:00 17,8 14,3 17,4 11 6 22 12 S 1009,8 69 0,0
30.09.2020 17:00:00 18,2 14,3 18,0 14 8 29 16 S 1010,3 70 0,0
30.09.2020 16:00:00 18,2 14,6 18,2 18 10 32 18 S 1010,8 68 0,0
30.09.2020 15:00:00 17,7 14,4 17,8 22 12 29 16 S 1011,2 60 0,0
30.09.2020 14:00:00 17,2 14,5 17,2 14 8 29 16 S 1011,9 60 0,0
30.09.2020 13:00:00 17,3 14,6 17,8 18 10 25 14 S 1012,3 39 0,0
30.09.2020 12:00:00 16,5 15,4 16,7 11 6 18 10 S 1013,0 14 0,0
30.09.2020 11:00:00 15,5 14,9 15,6 7 4 14 8 S 1013,4 8 0,0
30.09.2020 10:00:00 15,0 14,8 15,1 7 4 14 8 SSE 1013,8 8 0,0
30.09.2020 09:00:00 13,9 13,9 13,9 7 4 14 8 SE 1014,1 4,1 3,5
30.09.2020 08:00:00 13,6 13,5 13,6 7 4 22 12 S 1014,2 7 0,2
30.09.2020 07:00:00 13,4 12,8 12,9 7 4 14 8 SSE 1014,2 22 0,0
30.09.2020 06:00:00 13,1 12,6 12,5 7 4 11 6 SSE 1014,6 18 0,0
30.09.2020 05:00:00 13,2 12,7 12,1 7 4 11 6 S 1015,0 17 0,0
30.09.2020 04:00:00 13,6 12,9 12,8 7 4 14 8 SSE 1015,1 21 0,0
30.09.2020 03:00:00 14,3 13,3 13,8 7 4 14 8 S 1015,8 24 0,0
30.09.2020 02:00:00 14,4 13,3 13,5 11 6 14 8 SSW 1015,9 31 0,0
30.09.2020 01:00:00 13,4 12,4 12,0 11 6 18 10 SW 1016,2 24 0,0
30.09.2020 00:00:00 13,6 12,6 12,7 11 6 18 10 SW 1016,4 30 0,0
29.09.2020 23:00:00 14,0 12,7 12,5 7 4 14 8 SW 1016,5 44 0,0
29.09.2020 22:00:00 15,0 13,5 13,7 11 6 14 8 WSW 1016,5 35 0,0
29.09.2020 21:00:00 15,7 14,0 15,0 11 6 18 10 WSW 1016,3 46 0,0
29.09.2020 20:00:00 16,7 15,3 16,3 14 8 18 10 SW 1016,1 39 0,0
29.09.2020 19:00:00 16,9 16,0 16,7 7 4 14 8 S 1015,8 16 0,1
29.09.2020 18:00:00 17,2 15,6 17,3 11 6 18 10 S 1015,7 21 0,0
29.09.2020 17:00:00 17,4 15,0 17,5 14 8 18 10 S 1015,8 22 0,0
29.09.2020 16:00:00 17,7 14,7 18,5 11 6 18 10 S 1015,8 16 0,0
29.09.2020 15:00:00 17,6 13,7 18,4 11 6 18 10 WSW 1016,1 25 0,0
29.09.2020 14:00:00 17,6 13,6 18,7 11 6 18 10 SW 1016,4 32 0,0
29.09.2020 13:00:00 17,7 12,5 20,8 11 6 18 10 WSW 1016,5 19 0,0
29.09.2020 12:00:00 16,6 12,4 18,7 7 4 14 8 W 1016,5 46 0,0
29.09.2020 11:00:00 15,3 12,3 15,8 7 4 11 6 SW 1016,3 35 0,0
29.09.2020 10:00:00 14,4 12,4 14,5 4 2 11 6 SSW 1015,9 40 0,0
29.09.2020 09:00:00 11,0 10,5 10,2 7 4 11 6 SSW 1015,5 18 0,0
29.09.2020 08:00:00 9,4 9,0 7,8 7 4 11 6 SSW 1014,9 19 0,0
29.09.2020 07:00:00 9,5 8,8 8,3 11 6 11 6 WSW 1014,7 29 0,0
29.09.2020 06:00:00 11,2 9,9 10,5 11 6 14 8 WSW 1014,4 34 0,0
29.09.2020 05:00:00 12,8 11,3 12,1 11 6 11 6 WSW 1014,1 31 0,0
29.09.2020 04:00:00 13,1 12,2 12,7 7 4 11 6 WSW 1013,9 28 0,0
29.09.2020 03:00:00 13,7 12,7 13,2 7 4 14 8 W 1013,6 25 0,0
29.09.2020 02:00:00 13,8 13,5 13,7 4 2 11 6 W 1013,5 15 0,5
29.09.2020 01:00:00 14,0 13,4 13,8 7 4 14 8 WNW 1013,4 24 0,0
29.09.2020 00:00:00 14,0 13,6 13,9 11 6 22 12 WNW 1013,4 16 0,0
28.09.2020 23:00:00 14,1 13,8 14,0 14 8 25 14 NW 1013,1 11 0,7
28.09.2020 22:00:00 14,1 13,8 14,1 18 10 29 16 WNW 1012,6 10 1,2
28.09.2020 21:00:00 14,3 13,9 14,2 18 10 29 16 WNW 1012,2 13 1,2
28.09.2020 20:00:00 14,4 14,0 14,3 18 10 29 16 WNW 1011,6 10 0,5
28.09.2020 19:00:00 14,7 14,2 14,5 22 12 36 19 NW 1010,8 12 0,2
28.09.2020 18:00:00 14,8 14,4 14,7 22 12 40 21 NW 1010,2 10 0,3
28.09.2020 17:00:00 15,3 14,9 15,2 25 14 36 19 NW 1009,7 7 1,1
28.09.2020 16:00:00 15,7 15,4 15,7 22 12 36 19 NW 1009,3 7 1,5
28.09.2020 15:00:00 15,9 15,6 15,9 22 12 32 18 NW 1009,1 9 1,8
28.09.2020 14:00:00 16,2 15,9 16,2 22 12 32 18 NW 1009,0 4,1 0,3
28.09.2020 13:00:00 16,2 16,0 16,1 22 12 32 18 NW 1008,7 3,0 0,3
28.09.2020 12:00:00 16,1 15,8 16,0 22 12 32 18 NW 1008,4 6 0,0
28.09.2020 11:00:00 16,1 15,8 15,9 22 12 29 16 NW 1008,1 4,4 0,2
28.09.2020 10:00:00 15,7 15,6 15,0 14 8 22 12 NW 1007,8 3,3 1,3
28.09.2020 09:00:00 13,8 13,7 13,7 7 4 18 10 SW 1007,8 2,6 0,4
28.09.2020 08:00:00 13,4 13,1 13,3 14 8 22 12 SW 1007,6 4,0 0,7
28.09.2020 07:00:00 13,2 13,0 13,2 7 4 11 6 SSW 1007,7 2,7 1,2
28.09.2020 06:00:00 13,2 12,9 13,2 7 4 11 6 SW 1007,8 3,5 0,0
28.09.2020 05:00:00 13,1 12,8 13,1 7 4 11 6 WSW 1007,9 4,5 0,0
28.09.2020 04:00:00 13,0 12,9 13,0 4 2 11 6 SW 1008,2 6 0,0
28.09.2020 03:00:00 12,8 12,7 12,9 4 2 4 2 ESE 1008,4 5 0,1
28.09.2020 02:00:00 13,0 12,7 13,0 4 2 4 2 WSW 1008,5 10 0,0
28.09.2020 01:00:00 12,9 12,9 13,0 4 2 7 4 SE 1008,4 9 0,0
28.09.2020 00:00:00 13,1 12,9 13,1 4 2 11 6 WSW 1008,1 10 0,0
27.09.2020 23:00:00 12,9 12,8 13,1 4 2 7 4 SW 1008,1 4,2 0,6
27.09.2020 22:00:00 12,9 12,8 13,2 0 0 4 2 N 1007,9 3,6 0,5
27.09.2020 21:00:00 13,5 12,9 13,6 4 2 7 4 ESE 1007,3 8 0,0
27.09.2020 20:00:00 14,1 12,8 13,9 4 2 7 4 NNW 1006,8 26 0,0
27.09.2020 19:00:00 14,2 12,8 14,3 4 2 11 6 ENE 1006,7 72 0,0
27.09.2020 18:00:00 14,7 12,4 14,8 7 4 18 10 NE 1006,2 75 0,0
27.09.2020 17:00:00 15,0 12,0 15,1 14 8 22 12 NE 1005,7 71 0,0
27.09.2020 16:00:00 15,5 12,2 15,8 14 8 25 14 NE 1005,1 72 0,0
27.09.2020 15:00:00 15,4 12,1 15,5 18 10 32 18 NE 1004,4 74 0,0
27.09.2020 14:00:00 15,5 12,6 15,7 22 12 32 18 NE 1003,7 73 0,0
27.09.2020 13:00:00 15,9 12,7 15,9 22 12 40 21 NNE 1003,0 74 0,0
27.09.2020 12:00:00 15,9 12,8 16,0 25 14 43 23 NNE 1002,1 75 0,0
27.09.2020 11:00:00 16,4 13,2 16,2 25 14 58 31 NNE 1001,2 75 0,0
27.09.2020 10:00:00 17,1 15,2 16,9 29 16 54 29 N 1000,0 23 0,0
27.09.2020 09:00:00 16,7 15,2 16,1 36 19 50 27 N 999,2 23 0,0
27.09.2020 08:00:00 15,9 14,8 15,2 36 19 65 35 N 998,6 31 1,3
27.09.2020 07:00:00 15,1 14,2 14,6 40 21 72 39 N 998,2 6 1,2
27.09.2020 06:00:00 14,2 13,4 13,9 47 25 68 37 NNW 998,2 6 0,8
27.09.2020 05:00:00 13,8 12,9 13,6 50 27 68 37 NNW 998,7 4,5 1,0
27.09.2020 04:00:00 13,7 12,6 13,3 40 21 61 33 NNW 999,2 10 1,5
27.09.2020 03:00:00 13,4 11,8 12,8 36 19 54 29 NNW 1000,3 15 1,8
27.09.2020 02:00:00 12,9 11,8 12,4 36 19 61 33 NNW 1001,5 8 4,0
27.09.2020 01:00:00 13,0 12,1 12,7 36 19 54 29 NNW 1002,0 10 1,8
27.09.2020 00:00:00 13,4 11,9 12,9 32 18 47 25 NNW 1002,2 33 1,7
26.09.2020 23:00:00 13,2 11,9 12,7 18 10 36 19 NNW 1002,5 26 3,1
26.09.2020 22:00:00 13,2 11,7 12,5 11 6 18 10 NW 1002,8 37 0,0
26.09.2020 21:00:00 13,0 11,6 12,2 11 6 14 8 NW 1002,6 41 0,0
26.09.2020 20:00:00 12,4 10,9 11,6 14 8 43 23 W 1002,2 74 0,0
26.09.2020 19:00:00 14,1 9,4 14,0 22 12 43 23 NNW 1002,6 65 0,0
26.09.2020 18:00:00 15,8 10,3 15,9 18 10 29 16 NNW 1002,0 64 0,0
26.09.2020 17:00:00 15,5 11,2 15,8 18 10 22 12 NW 1001,8 61 0,0
26.09.2020 16:00:00 13,4 11,5 14,7 7 4 14 8 WSW 1001,5 59 1,4
26.09.2020 15:00:00 10,8 10,0 10,8 7 4 22 12 E 1001,8 31 1,1
26.09.2020 14:00:00 10,3 9,5 10,3 18 10 32 18 WNW 1001,7 10 3,3
26.09.2020 13:00:00 10,7 9,4 10,4 18 10 54 29 NNE 1001,5 44 1,6
26.09.2020 12:00:00 9,3 8,2 9,1 14 8 22 12 N 1001,4 6 6,2
26.09.2020 11:00:00 9,9 9,4 9,7 14 8 36 19 W 1001,2 11 4,2
26.09.2020 10:00:00 10,0 9,3 9,6 18 10 40 21 WNW 1000,8 14 3,7
26.09.2020 09:00:00 10,8 9,5 10,4 29 16 54 29 NW 1000,2 11 5,0
26.09.2020 08:00:00 10,6 8,9 9,8 25 14 47 25 N 999,8 7 6,0
26.09.2020 07:00:00 10,9 9,4 10,3 25 14 47 25 N 999,4 9 4,7
26.09.2020 06:00:00 11,1 9,5 10,6 40 21 61 33 NW 998,9 8 3,1
26.09.2020 05:00:00 12,2 10,1 11,5 40 21 58 31 NW 997,9 14 1,8
26.09.2020 04:00:00 11,4 10,0 10,9 43 23 72 39 NW 997,5 12 1,4
26.09.2020 03:00:00 11,8 10,4 11,1 47 25 79 43 WNW 996,8 6 1,8
26.09.2020 02:00:00 11,9 10,4 11,1 50 27 83 45 WNW 996,1 14 3,4
26.09.2020 01:00:00 10,9 10,1 10,6 50 27 76 41 WNW 995,8 3,7 2,2
26.09.2020 00:00:00 10,9 9,3 10,1 50 27 76 41 W 996,3 14 0,8

tt = temperature
td = dewpoint
tt 5cm = temperature 5cm
ff = wind speed
fx = gusts
dd = wind direction
ppp = reduced air pressure
vv = visibility
rr = precipitation

Next stations